LLHALCLK

Guest
Details From LLHA - Haifa
To LCLK - Larnaca
Flight Number -
Tags generated
Created
Modified
Stats Distance 143 nm / 265 km
Max Altitude 18,100 ft / 5,517 m
Waypoints 3
Social Downloads 0
Likes 0
Share VATSIM

Download

Looking for another format? Having issues loading an existing format? Contact us
Advertisement - Login to hide

Notes

Basic altitude profile: - Ascent Rate: 2500ft/min - Ascent Speed: 250kts - Cruise Altitude: 35000ft - Cruise Speed: 420kts - Descent Rate: 1500ft/min - Descent Speed: 250kts

Route

LLHA LITAN LCLK

ID Type Via Altitude Latitude Longitude Leg Dist Tot Dist Heading (true) Name
O LLHA APT - 0 ft / 0 m 32.81112˚ 35.04414˚ - 0 nm - Haifa
LITAN FIX - 18,100 ft / 5,517 m 33.58222˚ 34.63306˚ 50 nm 50 nm 336° / 336° -
O LCLK APT - 0 ft / 0 m 34.87512˚ 33.62483˚ 92 nm 143 nm 327° / 327° Larnaca

Altitude Profile

Advertisement - Login to hide

LLHA

Details ICAO LLHA (HFA)
Name Haifa
Region Israel
Timezone Asia/Jerusalem (UTC+3.0)
Stats Elevation 28 ft / 9 m (AMSL)
Location 32.811125° 35.044139°
Runways 1
Magnetic Variation 4.817° E

METAR

LLHA 201150Z 31008KT CAVOK 30/14 Q1010

Decode

TAF

TAF LLHA 201100Z 2012/2112 32010KT CAVOK BECMG 2018/2020 14005KT PROB40 2100/2106 7000 SCT015 BECMG 2106/2108 22006KT 9999 FEW020 TX31/2012Z TN21/2103Z

Decode

Departure Runways

ID Width Length Bearing (true) Bearing (mag) Surface Threshold Offset Overrun Length
16 98 ft / 30 m 4,161 ft / 1,268 m 158.88° 154.06° Asphalt 164 ft / 50 m 0 ft / 0 m
34 98 ft / 30 m 4,161 ft / 1,268 m 338.88° 334.06° Asphalt 380 ft / 116 m 90 ft / 27 m

LCLK

Details ICAO LCLK (LCA)
Name Larnaca
Region Cyprus
Timezone Asia/Nicosia (UTC+3.0)
Stats Elevation 8 ft / 2 m (AMSL)
Location 34.875115° 33.624832°
Runways 1
Magnetic Variation 5.028° E

METAR

LCLK 201230Z 13010KT 9999 FEW025 28/20 Q1009 NOSIG

Decode

TAF

TAF LCLK 201130Z 2012/2112 20014KT 9999 FEW040 BECMG 2015/2018 32006KT BECMG 2108/2112 21014KT

Decode

Destination Runways

ID Width Length Bearing (true) Bearing (mag) Surface Threshold Offset Overrun Length
04 148 ft / 45 m 9,771 ft / 2,978 m 45.15° 40.12° Asphalt 0 ft / 0 m 210 ft / 64 m
22 148 ft / 45 m 9,771 ft / 2,978 m 225.17° 220.14° Asphalt 575 ft / 175 m 0 ft / 0 m

Approach Navaids

Runway Type Ident Frequency Range Bearing (true) Bearing (mag) Slope Elevation
22 Localiser ILC 110.30 MHz 18 nm / 33 km 225.17° 220.14° - 8 ft / 2 m (AMSL)
22 Glidescope ILC 110.30 MHz 10 nm / 19 km 225.16° 220.13° 2.75° 24 ft / 7 m (AMSL)
22 DME ILC 110.30 MHz 18 nm / 33 km - - - 20 ft / 6 m (AMSL)

Popular Alternatives